SIRIUSSAT-2 (43596 NORAD) Tracking and Keplerian Element Data

This shows tracking and keplerian element data for the satellite.

Feedback or suggestion? Click here.




ElementValue
Catalog43596
NameSIRIUSSAT-2
Epoch Orbit3906
Epoch Day113.50217781
Epoch Year2019
RAAN267.0543
Inclination51.6377
Eccentricity0.0004112
Argument of Perigee258.0059
Mean Anonmoly102.0473
Mean Motion15.59545589
Decay Rate0.00012447
L11 43596U 98067PH 19113.50217781 .00012447 00000-0 15972-3 0 9998
L22 43596 51.6377 267.0543 0004112 258.0059 102.0473 15.59545589 39063

Live tracking and technical data element details for SIRIUSSAT-2 (NORAD 43596). SIRIUSSAT-2 can be tracked NOW for your location showing map with azimuth and elevation plus other details from your city location.

Track the satellite on the map from your city or location and see movement details for azimuth, elevation, latitude, longitude, range, height, and movement on the map or in text.







IsCatalogInMostPopularTable: catalog: 43596, numindb: 124
Update: records affected: 1



GetName: 43596 SIRIUSSAT-2

Hit Count: updated at: Thu, 25 Apr 2019 20:18:53 GMT